レモン彗星

363P/Lemmon (2024)

English version
Home page
Updated on August 9, 2025

---------------------------------------------------------------------

・ プロフィール

・ 軌道要素

Epoch 2025 May 5.0 TT = JDT 2460800.5
T 2024 Nov. 13.21974 TT                                 Pike
q   1.7209603            (2000.0)            P               Q
n   0.14583655     Peri.  340.76035     -0.60982514     -0.79085910
a   3.5745808      Node   146.75871     +0.73890328     -0.59086506
e   0.5185560      Incl.    5.39386     +0.28659247     -0.15943765
P   6.76
From 58 observations 2017 Oct. 27-2025 Mar. 27, mean residual 0".3.

・ 光度変化

        m1 = 17.5 + 5 logΔ + 10.0 log r

---------------------------------------------------------------------

軌道要素はM.P.E.C. 2025-G119に掲載されたものです。
光度グラフはComet for Windowsで作成したものです。

---------------------------------------------------------------------

Copyright(C) Seiichi Yoshida (comet@aerith.net). All rights reserved.